Time,TemperatureF,DewpointF,PressureIn,WindDirection,WindDirectionDegrees,WindSpeedMPH,WindSpeedGustMPH,Humidity,HourlyPrecipIn,Conditions,Clouds,dailyrainin,SoftwareType,DateUTC
2013-11-12 00:24:00,48.0,29.0,30.09,SSE,158,0.0,2.0,48,0.00,,,0.00,,2013-11-12 05:24:00,
2013-11-12 00:54:00,48.0,29.0,30.06,SSE,158,0.0,1.0,48,0.00,,,0.00,,2013-11-12 05:54:00,
2013-11-12 01:22:00,48.0,29.0,30.06,NW,315,0.0,1.0,47,0.00,,,0.00,,2013-11-12 06:22:00,
2013-11-12 01:42:00,48.0,29.0,30.03,SSE,158,0.0,2.0,47,0.00,,,0.00,,2013-11-12 06:42:00,
2013-11-12 01:52:00,48.0,29.0,30.03,WSW,248,0.0,2.0,47,0.00,,,0.00,,2013-11-12 06:52:00,
2013-11-12 02:11:00,48.0,29.0,30.03,WSW,248,0.0,1.0,47,0.00,,,0.00,,2013-11-12 07:11:00,
2013-11-12 02:22:00,48.0,29.0,30.03,SSW,203,1.0,1.0,47,0.00,,,0.00,,2013-11-12 07:22:00,
2013-11-12 02:42:00,47.0,28.0,30.00,East,90,0.0,0.0,47,0.00,,,0.00,,2013-11-12 07:42:00,
2013-11-12 02:52:00,47.0,28.0,30.00,East,90,0.0,0.0,47,0.00,,,0.00,,2013-11-12 07:52:00,
2013-11-12 03:11:00,47.0,28.0,30.00,ESE,113,0.0,0.0,48,0.00,,,0.00,,2013-11-12 08:11:00,
2013-11-12 03:22:00,46.0,27.0,30.00,ESE,113,0.0,0.0,48,0.00,,,0.00,,2013-11-12 08:22:00,
2013-11-12 03:42:00,46.0,27.0,30.00,ESE,113,0.0,0.0,48,0.00,,,0.00,,2013-11-12 08:42:00,
2013-11-12 03:52:00,45.0,27.0,29.97,ESE,113,0.0,0.0,49,0.00,,,0.00,,2013-11-12 08:52:00,
2013-11-12 04:02:00,45.0,27.0,29.97,ESE,113,0.0,0.0,49,0.00,,,0.00,,2013-11-12 09:02:00,
2013-11-12 04:22:00,45.0,27.0,29.97,ESE,113,0.0,0.0,50,0.00,,,0.00,,2013-11-12 09:22:00,
2013-11-12 04:42:00,45.0,27.0,29.97,ESE,113,0.0,0.0,50,0.00,,,0.00,,2013-11-12 09:42:00,
2013-11-12 04:53:00,45.0,27.0,29.97,ESE,113,0.0,1.0,49,0.00,,,0.00,,2013-11-12 09:53:00,
2013-11-12 05:13:00,45.0,27.0,29.97,East,90,0.0,1.0,49,0.00,,,0.00,,2013-11-12 10:13:00,
2013-11-12 05:23:00,45.0,27.0,29.97,East,90,0.0,0.0,49,0.00,,,0.00,,2013-11-12 10:23:00,
2013-11-12 05:42:00,45.0,27.0,29.97,East,90,0.0,0.0,49,0.00,,,0.00,,2013-11-12 10:42:00,
2013-11-12 05:53:00,45.0,27.0,29.97,East,90,0.0,0.0,49,0.00,,,0.00,,2013-11-12 10:53:00,
2013-11-12 06:12:00,45.0,27.0,29.97,East,90,0.0,0.0,49,0.00,,,0.00,,2013-11-12 11:12:00,
2013-11-12 06:22:00,45.0,27.0,29.97,NNW,338,0.0,0.0,49,0.00,,,0.00,,2013-11-12 11:22:00,
2013-11-12 06:42:00,46.0,28.0,30.00,ESE,113,1.0,1.0,49,0.00,,,0.00,,2013-11-12 11:42:00,
2013-11-12 06:52:00,46.0,28.0,30.00,East,90,0.0,0.0,49,0.00,,,0.00,,2013-11-12 11:52:00,
2013-11-12 07:11:00,46.0,28.0,30.00,ESE,113,0.0,0.0,50,0.00,,,0.00,,2013-11-12 12:11:00,
2013-11-12 07:22:00,46.0,29.0,30.00,ESE,113,0.0,0.0,51,0.00,,,0.00,,2013-11-12 12:22:00,
2013-11-12 07:42:00,46.0,29.0,30.03,ESE,113,0.0,0.0,51,0.00,,,0.00,,2013-11-12 12:42:00,
2013-11-12 07:52:00,45.0,30.0,30.06,NNW,338,0.0,3.0,56,0.00,,,0.00,,2013-11-12 12:52:00,
2013-11-12 08:11:00,45.0,33.0,30.06,SSE,158,0.0,3.0,62,0.00,,,0.00,,2013-11-12 13:11:00,
2013-11-12 08:22:00,45.0,33.0,30.06,SSE,158,0.0,0.0,63,0.00,,,0.00,,2013-11-12 13:22:00,
2013-11-12 08:42:00,45.0,34.0,30.06,SSE,158,0.0,0.0,64,0.00,,,0.00,,2013-11-12 13:42:00,
2013-11-12 08:52:00,46.0,35.0,30.06,SSE,158,0.0,0.0,64,0.00,,,0.00,,2013-11-12 13:52:00,
2013-11-12 09:12:00,47.0,35.0,30.09,SSE,158,0.0,0.0,64,0.00,,,0.00,,2013-11-12 14:12:00,
2013-11-12 09:22:00,48.0,34.0,30.09,NNW,338,1.0,2.0,59,0.00,,,0.00,,2013-11-12 14:22:00,
2013-11-12 09:32:00,48.0,34.0,30.09,NNW,338,1.0,2.0,59,0.00,,,0.00,,2013-11-12 14:32:00,
2013-11-12 09:42:00,48.0,34.0,30.09,NNW,338,1.0,2.0,59,0.00,,,0.00,,2013-11-12 14:42:00,
2013-11-12 09:52:00,51.0,33.0,30.09,WNW,293,1.0,4.0,50,0.00,,,0.00,,2013-11-12 14:52:00,
2013-11-12 10:22:00,50.0,32.0,30.09,WNW,293,3.0,5.0,49,0.00,,,0.00,,2013-11-12 15:22:00,
2013-11-12 10:44:00,50.0,32.0,30.12,WNW,293,3.0,3.0,49,0.00,,,0.00,,2013-11-12 15:44:00,
2013-11-12 10:53:00,50.0,31.0,30.15,NW,315,4.0,4.0,48,0.00,,,0.00,,2013-11-12 15:53:00,
2013-11-12 11:23:00,49.0,30.0,30.15,NNW,338,1.0,4.0,47,0.00,,,0.00,,2013-11-12 16:23:00,
2013-11-12 11:42:00,49.0,29.0,30.18,WNW,293,2.0,4.0,45,0.00,,,0.00,,2013-11-12 16:42:00,
2013-11-12 11:52:00,48.0,27.0,30.18,NNW,338,3.0,7.0,43,0.00,,,0.00,,2013-11-12 16:52:00,
2013-11-12 12:12:00,48.0,26.0,30.18,NNW,338,3.0,4.0,42,0.00,,,0.00,,2013-11-12 17:12:00,
2013-11-12 12:23:00,46.0,24.0,30.18,WNW,293,2.0,3.0,42,0.00,,,0.00,,2013-11-12 17:23:00,
2013-11-12 12:52:00,44.0,24.0,30.21,NNW,338,3.0,4.0,45,0.00,,,0.00,,2013-11-12 17:52:00,
2013-11-12 13:12:00,44.0,23.0,30.21,SSE,158,2.0,6.0,44,0.00,,,0.00,,2013-11-12 18:12:00,
2013-11-12 13:23:00,44.0,23.0,30.21,WNW,293,1.0,4.0,43,0.00,,,0.00,,2013-11-12 18:23:00,
2013-11-12 13:42:00,43.0,22.0,30.21,WNW,293,1.0,4.0,42,0.00,,,0.00,,2013-11-12 18:42:00,
2013-11-12 13:52:00,39.0,21.0,30.21,NW,315,1.0,6.0,49,0.00,,,0.00,,2013-11-12 18:52:00,
2013-11-12 14:22:00,40.0,19.0,30.21,NNE,23,1.0,7.0,42,0.00,,,0.00,,2013-11-12 19:22:00,
2013-11-12 14:42:00,41.0,19.0,30.21,WNW,293,5.0,5.0,41,0.00,,,0.00,,2013-11-12 19:42:00,
2013-11-12 14:52:00,41.0,19.0,30.24,NW,315,2.0,3.0,40,0.00,,,0.00,,2013-11-12 19:52:00,
2013-11-12 15:11:00,41.0,19.0,30.24,NNW,338,2.0,2.0,40,0.00,,,0.00,,2013-11-12 20:11:00,
2013-11-12 15:22:00,41.0,19.0,30.24,WSW,248,1.0,5.0,40,0.00,,,0.00,,2013-11-12 20:22:00,
2013-11-12 15:52:00,41.0,19.0,30.24,NNW,338,3.0,3.0,40,0.00,,,0.00,,2013-11-12 20:52:00,
2013-11-12 16:12:00,41.0,19.0,30.24,ENE,68,3.0,3.0,40,0.00,,,0.00,,2013-11-12 21:12:00,
2013-11-12 16:22:00,40.0,18.0,30.24,NW,315,3.0,5.0,40,0.00,,,0.00,,2013-11-12 21:22:00,
2013-11-12 16:44:00,40.0,18.0,30.24,WNW,293,1.0,3.0,40,0.00,,,0.00,,2013-11-12 21:44:00,
2013-11-12 16:54:00,40.0,18.0,30.27,ESE,113,1.0,3.0,40,0.00,,,0.00,,2013-11-12 21:54:00,
2013-11-12 17:24:00,39.0,17.0,30.27,ESE,113,1.0,2.0,40,0.00,,,0.00,,2013-11-12 22:24:00,
2013-11-12 17:33:00,39.0,17.0,30.27,ESE,113,1.0,2.0,40,0.00,,,0.00,,2013-11-12 22:33:00,
2013-11-12 17:54:00,39.0,17.0,30.27,NW,315,0.0,2.0,40,0.00,,,0.00,,2013-11-12 22:54:00,
2013-11-12 18:12:00,39.0,17.0,30.27,NNW,338,2.0,2.0,40,0.00,,,0.00,,2013-11-12 23:12:00,
2013-11-12 18:23:00,39.0,17.0,30.29,SSE,158,2.0,2.0,40,0.00,,,0.00,,2013-11-12 23:23:00,
2013-11-12 18:42:00,39.0,17.0,30.29,WNW,293,3.0,3.0,40,0.00,,,0.00,,2013-11-12 23:42:00,
2013-11-12 18:54:00,39.0,17.0,30.29,WNW,293,0.0,4.0,41,0.00,,,0.00,,2013-11-12 23:54:00,
2013-11-12 19:11:00,39.0,17.0,30.29,NW,315,1.0,2.0,40,0.00,,,0.00,,2013-11-13 00:11:00,
2013-11-12 19:22:00,39.0,17.0,30.29,SE,135,0.0,3.0,40,0.00,,,0.00,,2013-11-13 00:22:00,
2013-11-12 19:42:00,39.0,17.0,30.33,NNW,338,0.0,3.0,40,0.00,,,0.00,,2013-11-13 00:42:00,
2013-11-12 19:52:00,39.0,17.0,30.33,WNW,293,3.0,3.0,40,0.00,,,0.00,,2013-11-13 00:52:00,
2013-11-12 20:12:00,39.0,16.0,30.33,NW,315,1.0,3.0,39,0.00,,,0.00,,2013-11-13 01:12:00,
2013-11-12 20:22:00,39.0,16.0,30.33,ESE,113,2.0,3.0,39,0.00,,,0.00,,2013-11-13 01:22:00,
2013-11-12 20:42:00,39.0,16.0,30.33,SE,135,1.0,3.0,39,0.00,,,0.00,,2013-11-13 01:42:00,
2013-11-12 20:52:00,38.0,15.0,30.33,WNW,293,1.0,3.0,39,0.00,,,0.00,,2013-11-13 01:52:00,
2013-11-12 21:11:00,38.0,15.0,30.33,WNW,293,0.0,1.0,39,0.00,,,0.00,,2013-11-13 02:11:00,
2013-11-12 21:22:00,38.0,15.0,30.33,WNW,293,0.0,1.0,39,0.00,,,0.00,,2013-11-13 02:22:00,
2013-11-12 21:42:00,38.0,15.0,30.36,WNW,293,0.0,3.0,39,0.00,,,0.00,,2013-11-13 02:42:00,
2013-11-12 21:52:00,37.0,14.0,30.36,WNW,293,3.0,4.0,39,0.00,,,0.00,,2013-11-13 02:52:00,
2013-11-12 22:02:00,37.0,14.0,30.36,WNW,293,3.0,4.0,39,0.00,,,0.00,,2013-11-13 03:02:00,
2013-11-12 22:12:00,37.0,14.0,30.36,WNW,293,3.0,4.0,39,0.00,,,0.00,,2013-11-13 03:12:00,
2013-11-12 22:22:00,37.0,15.0,30.36,WNW,293,1.0,1.0,40,0.00,,,0.00,,2013-11-13 03:22:00,
2013-11-12 22:45:00,36.0,14.0,30.36,NNW,338,1.0,3.0,40,0.00,,,0.00,,2013-11-13 03:45:00,
2013-11-12 22:54:00,36.0,14.0,30.39,ESE,113,1.0,2.0,40,0.00,,,0.00,,2013-11-13 03:54:00,
2013-11-12 23:14:00,35.0,13.0,30.39,NW,315,2.0,3.0,40,0.00,,,0.00,,2013-11-13 04:14:00,
2013-11-12 23:43:00,35.0,13.0,30.39,NW,315,0.0,3.0,40,0.00,,,0.00,,2013-11-13 04:43:00,
2013-11-12 23:53:00,34.0,12.0,30.39,SSE,158,0.0,0.0,40,0.00,,,0.00,,2013-11-13 04:53:00,